{"data":{"norad_id":61750,"intl_designator":"2024-199R","name":"2024-199R","alt_names":[],"object_type":"PAYLOAD","status":"ACTIVE","operator":null,"country":"TBD","launch_date":"2024-11-04","launch_site_code":"VOSTO","launch_vehicle":null,"mission":null,"orbit_class":"UNKNOWN","rcs_meters":null,"size_class":null,"mass_kg":null,"dimensions":null,"purposes":[],"wikipedia_slug":null,"has_3d_model":false,"image_url":null,"decayed_at":null,"tle_current":{"epoch":"2026-09-22T20:20:57.681312Z","epoch_age_seconds":97184,"freshness":"FRESH","line1":"1 61750U 24199R   26265.84788983  .00036582  00000+0  41134-3 0  9999","line2":"2 61750  97.2774 143.9118 0002743 284.3359  75.7594 15.62513405152764","mean_motion":15.62513405,"eccentricity":0.0002743,"inclination_deg":97.2774,"raan_deg":143.9118,"arg_perigee_deg":284.3359,"mean_anomaly_deg":75.7594,"bstar":0.00041134,"rev_number":15276,"period_min":92.159209347711,"perigee_km":378.54578610753,"apogee_km":382.2535193152,"semimajor_km":6758.5366527114,"source":"CELESTRAK","updated_at":"2026-09-23T09:00:21.026695Z"}}}